[[{"header":{"parameterUnit":"m.s-1","parameterCategory":2,"la1":30.2991,"la2":30.254,"lo1":-89.0895,"lo2":-89.0444,"dy":0.0017,"dx":0.0017,"nx":28,"ny":28,"refTime":"2024-09-25T09:00:00:Z","depth":"0","parameterNumber":2,"parameterNumberName":"U-component_of_CURRENTS"},"data":[0,0,0,0,0,0,0,0,0,0,0,0,0,0,0,0,0,0,0,0,0,0,0,0,0,0,0,0,0,0,0,0,0,0,0,0,0,0,0,0,0,0,0,0,0,0,0,0,0,0,0,0,0,0,0,0,0,0,0.3017,0.3017,0,0.3032,0.3032,0.3032,0.3056,0.3056,0.3057,0.3058,0.3065,0.3065,0.3064,0,0,0,0,0,0,0,0,0,0,0,0,0,0.2937,0.2939,0.3017,0.3017,0.3018,0.3032,0.3032,0.3032,0.3056,0.3056,0.3057,0.3058,0.3065,0.3065,0.3064,0,0,0,0,0,0,0,0,0,0,0,0,0,0.2963,0.2939,0.3017,0.3032,0.3034,0.3032,0.3032,0.3032,0.3056,0.3057,0.3057,0.3058,0.3065,0.3065,0.3064,0.3044,0,0,0.3063,0.3063,0,0,0,0,0,0,0,0,0.2961,0.2965,0.303,0.3031,0.3033,0.3045,0.3007,0.3036,0.3055,0.3046,0.3058,0.3059,0.3058,0.3058,0.3057,0.3044,0.3045,0.3063,0.3062,0.3062,0.3062,0,0,0,0,0,0,0,0.296,0.2964,0.3021,0.303,0.3032,0.3014,0.3019,0.3012,0.3045,0.3047,0.3049,0.3053,0.3059,0.3057,0.3057,0.3045,0.3063,0.3062,0.3062,0.3062,0.3054,0.3054,0,0,0,0,0,0,0.2964,0.2963,0.3021,0.3022,0.3,0.3015,0.3021,0.3039,0.3046,0.3048,0.3052,0.3054,0.3058,0.3058,0.3057,0.3081,0.3062,0.3062,0.3061,0.3054,0.3054,0.3054,0,0,0,0,0,0,0.2963,0.297,0.302,0.2993,0.2999,0.3017,0.3036,0.3039,0.3041,0.305,0.3052,0.3053,0.3058,0.3058,0.3058,0.308,0.3062,0.3061,0.3054,0.3054,0.3054,0.3098,0,0,0,0,0,0,0.296,0.2969,0.2976,0.2994,0.3001,0.303,0.3035,0.3038,0.3043,0.3045,0.3051,0.3053,0.3059,0.3059,0.3058,0.3079,0.3061,0.3054,0.3054,0.3054,0.3097,0.31,0.3103,0,0,0,0,0,0.2958,0.2963,0.2977,0.2983,0.3013,0.3031,0.3032,0.3046,0.3042,0.3049,0.3049,0.3053,0.3059,0.3058,0.3057,0.3079,0.3053,0.3054,0.3054,0.3095,0.3099,0.3102,0,0,0,0,0,0,0.2917,0.2967,0.2982,0.2999,0.302,0.3036,0.3036,0.3042,0.3045,0.3044,0.3048,0.305,0.3063,0.3053,0.3052,0.3075,0.3059,0.3059,0.3091,0.3094,0.3097,0.3084,0.306,0,0,0,0,0,0.2916,0.2943,0.2978,0.299,0.3001,0.3016,0.3021,0.3034,0.3041,0.3043,0.3049,0.305,0.306,0.3063,0.3067,0.3069,0.309,0.3083,0.3086,0.3088,0.3075,0.3132,0.314,0.3055,0.3055,0.3055,0,0,0.29,0.2931,0.2944,0.2984,0.2997,0.302,0.3021,0.3033,0.305,0.3042,0.3056,0.3059,0.3062,0.3078,0.3083,0.3075,0.3128,0.3089,0.3091,0.3076,0.3133,0.3142,0.3149,0.3055,0.3055,0.3055,0,0,0.2888,0.2914,0.2937,0.296,0.2992,0.301,0.3015,0.3037,0.3048,0.3059,0.3065,0.3074,0.308,0.3094,0.3099,0.3112,0.3143,0.3119,0.3125,0.3181,0.3189,0.3196,0.3259,0.3272,0.312,0.3121,0.3121,0,0.2865,0.2907,0.294,0.2967,0.2982,0.3008,0.3027,0.3044,0.3063,0.3068,0.3069,0.3087,0.3089,0.3114,0.3122,0.3121,0.3161,0.3117,0.3188,0.3195,0.3202,0.3264,0.3277,0.3123,0.3122,0.3122,0.3122,0,0.2882,0.2909,0.2918,0.2975,0.2993,0.301,0.3047,0.3063,0.3075,0.309,0.3112,0.3118,0.3128,0.3139,0.3132,0.3178,0.3196,0.3191,0.3185,0.3214,0.3277,0.329,0.3126,0.3125,0.3124,0.3124,0,0,0.2839,0.292,0.2918,0.2947,0.2998,0.3015,0.3046,0.3082,0.31,0.312,0.3142,0.3156,0.3157,0.316,0.3167,0.3205,0.3293,0.3215,0.3217,0.3288,0.3437,0.3294,0.3295,0.3314,0.3316,0.3318,0.3473,0,0.284,0.2895,0.2931,0.2968,0.2998,0.3031,0.3059,0.309,0.3117,0.3146,0.3161,0.3184,0.3171,0.3182,0.3219,0.3272,0.3325,0.3252,0.3387,0.3391,0.3269,0.3302,0.306,0.3162,0.3485,0.3488,0.3489,0,0.2841,0.2882,0.2924,0.2981,0.2993,0.3018,0.3064,0.3094,0.3142,0.3159,0.3184,0.3201,0.3248,0.3235,0.335,0.3311,0.337,0.3413,0.3421,0.3271,0.3269,0.3179,0.3174,0.3061,0.3509,0.3507,0.3506,0,0.2807,0.2868,0.2905,0.2924,0.2996,0.301,0.3044,0.3091,0.3108,0.3172,0.3185,0.325,0.3275,0.3363,0.3425,0.341,0.3558,0.3555,0.349,0.3483,0.3287,0.3256,0.3185,0.3645,0.3645,0.3644,0.3644,0,0.2797,0.282,0.2893,0.2913,0.2943,0.2995,0.3021,0.3065,0.3109,0.3134,0.3186,0.3212,0.3307,0.3386,0.346,0.3501,0.3596,0.3488,0.3504,0.3294,0.3264,0.3163,0.3151,0.365,0.3649,0.3648,0.3647,0,0.2756,0.2809,0.2851,0.2918,0.2933,0.2954,0.2996,0.302,0.3069,0.3107,0.3125,0.32,0.3302,0.3395,0.3541,0.3517,0.3469,0.3596,0.3336,0.3314,0.3079,0.308,0.2944,0.2873,0.3538,0.3536,0.3533,0,0.2743,0.2765,0.2835,0.2859,0.2889,0.292,0.2943,0.2993,0.3019,0.3094,0.3114,0.3202,0.3261,0.3393,0.3371,0.346,0.3403,0.3265,0.3156,0.3017,0.3034,0.2948,0.2895,0.2953,0.2946,0.2941,0.2936,0,0.272,0.2749,0.2797,0.2836,0.2866,0.2879,0.2917,0.2922,0.2991,0.302,0.3093,0.3146,0.3199,0.3128,0.3159,0.3173,0.3028,0.3146,0.3075,0.2608,0.2439,0.2394,0.293,0.2886,0.2891,0.2895,0.2897,0.2899,0.2707,0.2724,0.2791,0.2814,0.2848,0.2848,0.282,0.2862,0.2881,0.2876,0.2997,0.2978,0.2896,0.2874,0.2874,0.2593,0.2709,0.2463,0.25,0.2445,0.226,0.2669,0.2581,0.2584,0.2587,0.259,0.2592,0,0.268,0.2715,0.2756,0.2787,0.2785,0.2803,0.2806,0.2742,0.2727,0.2738,0.2755,0.2598,0.2447,0.2368,0.2091,0.196,0.1889,0.1893,0.1727,0.1734,0.2148,0.1998,0.1687,0.1687,0.1687,0.1688,0.1688,0.1688,0.2678,0.2707,0.2717,0.2712,0.2713,0.2634,0.2601,0.2526,0.249,0.2328,0.2195,0.2171,0.2045,0.1778,0.1532,0.1482,0.1406,0.1258,0.1397,0.1681,0.1736,0.179,0.1642,0.1262,0.1261,0.0822,0.0819,0.0816]},{"header":{"parameterUnit":"m.s-1","parameterCategory":2,"la1":30.2991,"la2":30.254,"lo1":-89.0895,"lo2":-89.0444,"dy":0.0017,"dx":0.0017,"nx":28,"ny":28,"refTime":"2024-09-25T09:00:00:Z","depth":"0","parameterNumber":3,"parameterNumberName":"V-component_of_CURRENTS"},"data":[0,0,0,0,0,0,0,0,0,0,0,0,0,0,0,0,0,0,0,0,0,0,0,0,0,0,0,0,0,0,0,0,0,0,0,0,0,0,0,0,0,0,0,0,0,0,0,0,0,0,0,0,0,0,0,0,0,0,-0.0334,-0.0335,0,-0.0383,-0.0383,-0.0384,-0.0424,-0.0425,-0.0425,-0.0426,-0.0478,-0.0478,-0.0479,0,0,0,0,0,0,0,0,0,0,0,0,0,-0.0221,-0.0223,-0.0334,-0.0335,-0.0335,-0.0383,-0.0383,-0.0384,-0.0424,-0.0425,-0.0425,-0.0426,-0.0477,-0.0478,-0.0479,0,0,0,0,0,0,0,0,0,0,0,0,0,-0.0269,-0.0224,-0.0334,-0.0362,-0.0365,-0.0383,-0.0383,-0.0384,-0.0424,-0.0425,-0.0425,-0.0426,-0.0477,-0.0478,-0.048,-0.0472,0,0,-0.0484,-0.0484,0,0,0,0,0,0,0,0,-0.0267,-0.0273,-0.0357,-0.036,-0.0363,-0.0399,-0.0363,-0.0414,-0.0424,-0.04,-0.0426,-0.0427,-0.0452,-0.0455,-0.0461,-0.0475,-0.0477,-0.0484,-0.0485,-0.0485,-0.0486,0,0,0,0,0,0,0,-0.0263,-0.0271,-0.0352,-0.0358,-0.0362,-0.0353,-0.0362,-0.0372,-0.042,-0.0403,-0.0406,-0.0413,-0.0453,-0.046,-0.0463,-0.0478,-0.0484,-0.0485,-0.0486,-0.0486,-0.0483,-0.0482,0,0,0,0,0,0,-0.0262,-0.0269,-0.0351,-0.0354,-0.0317,-0.0355,-0.0364,-0.0386,-0.042,-0.0427,-0.0412,-0.0414,-0.0457,-0.0461,-0.0465,-0.0454,-0.0485,-0.0487,-0.0487,-0.0484,-0.0483,-0.0482,0,0,0,0,0,0,-0.0259,-0.0269,-0.0349,-0.0312,-0.0322,-0.0357,-0.0381,-0.0387,-0.0394,-0.0428,-0.0434,-0.0414,-0.0458,-0.0463,-0.0468,-0.0456,-0.0487,-0.0488,-0.0485,-0.0483,-0.0482,-0.0435,0,0,0,0,0,0,-0.0256,-0.0268,-0.0274,-0.0312,-0.0324,-0.0349,-0.038,-0.0387,-0.0398,-0.0401,-0.0431,-0.0437,-0.0459,-0.0466,-0.047,-0.0459,-0.0489,-0.0486,-0.0484,-0.0483,-0.0437,-0.0432,-0.0427,0,0,0,0,0,-0.0252,-0.0251,-0.0274,-0.0283,-0.0334,-0.0349,-0.0353,-0.0379,-0.0397,-0.0391,-0.0413,-0.0436,-0.0458,-0.0466,-0.0471,-0.046,-0.0487,-0.0485,-0.0483,-0.044,-0.0433,-0.0427,0,0,0,0,0,0,-0.0197,-0.0257,-0.0282,-0.0299,-0.032,-0.0356,-0.035,-0.0374,-0.0387,-0.0392,-0.0426,-0.0432,-0.0432,-0.0449,-0.0457,-0.0453,-0.0475,-0.0474,-0.0441,-0.0435,-0.043,-0.0413,-0.0491,0,0,0,0,0,-0.0191,-0.021,-0.0259,-0.0267,-0.0279,-0.0315,-0.0322,-0.0345,-0.0366,-0.0374,-0.0396,-0.0415,-0.0425,-0.0433,-0.0444,-0.0441,-0.0421,-0.0436,-0.0431,-0.0427,-0.0415,-0.0377,-0.0367,-0.0475,-0.0475,-0.0475,0,0,-0.0171,-0.0204,-0.0215,-0.0256,-0.0276,-0.0286,-0.032,-0.033,-0.0336,-0.0376,-0.038,-0.0397,-0.042,-0.0418,-0.0419,-0.0432,-0.038,-0.0424,-0.042,-0.0411,-0.0374,-0.0363,-0.0353,-0.0474,-0.0474,-0.0474,0,0,-0.0136,-0.0171,-0.0177,-0.0196,-0.0228,-0.0252,-0.0255,-0.0291,-0.0303,-0.0311,-0.034,-0.0344,-0.0367,-0.0376,-0.0386,-0.0356,-0.0353,-0.0364,-0.0327,-0.0291,-0.0281,-0.0273,-0.0208,-0.0194,-0.0363,-0.0363,-0.0363,0,-0.0108,-0.0136,-0.0174,-0.0182,-0.0194,-0.0237,-0.024,-0.0253,-0.0284,-0.0286,-0.0305,-0.032,-0.0344,-0.0335,-0.033,-0.0344,-0.0313,-0.0351,-0.0283,-0.0274,-0.0266,-0.0202,-0.0187,-0.036,-0.0361,-0.0361,-0.0361,0,-0.0087,-0.0105,-0.0102,-0.0139,-0.0148,-0.0155,-0.0189,-0.0194,-0.0217,-0.0234,-0.0228,-0.0253,-0.0259,-0.0271,-0.0297,-0.0257,-0.0247,-0.0278,-0.0297,-0.0252,-0.0187,-0.0173,-0.0357,-0.0358,-0.0359,-0.0359,0,0,-0.0047,-0.0084,-0.0085,-0.0095,-0.0133,-0.0138,-0.014,-0.0154,-0.0142,-0.0166,-0.0142,-0.0171,-0.018,-0.0189,-0.0215,-0.0193,-0.0112,-0.0211,-0.021,-0.0142,0.0,0.001,0.0027,-0.0132,-0.013,-0.0128,0.0033,0,-0.0024,-0.003,-0.0056,-0.0054,-0.0064,-0.0095,-0.0087,-0.0099,-0.0107,-0.0087,-0.0108,-0.0092,-0.015,-0.0141,-0.013,-0.0116,-0.0076,-0.0151,-0.0057,-0.0053,-0.0047,0.0043,0.0033,0.0176,0.0047,0.005,0.0051,0,-0.0005,-0.0015,-0.0013,-0.0024,-0.0028,-0.0026,-0.0021,-0.0018,-0.0005,-0.0003,0.0005,-0.0004,0.0024,-0.0029,0.0032,-0.0011,0.0004,0.0012,0.0018,0.0019,-0.0017,0.0105,0.0207,0.0129,0.0073,0.0072,0.007,0,0.0028,0.0015,0.0017,0.001,-0.0004,0.0003,0.0002,0.001,0.0032,0.0064,0.0102,0.0111,0.0151,0.0155,0.0162,0.0109,0.0248,0.0175,0.0207,0.0209,0.0216,0.0215,0.0256,0.0236,0.0236,0.0235,0.0235,0,0.0049,0.0054,0.0035,0.0036,0.0061,0.0039,0.0079,0.0082,0.0117,0.0177,0.0156,0.0227,0.0199,0.026,0.0234,0.0292,0.0313,0.025,0.0258,0.0234,0.0233,0.0174,0.0122,0.0241,0.024,0.0239,0.0238,0,0.0086,0.0068,0.0077,0.0071,0.0075,0.0097,0.0126,0.0165,0.0189,0.0276,0.03,0.0351,0.0441,0.0428,0.0475,0.0414,0.0421,0.0454,0.0444,0.0446,0.0356,0.0307,0.0403,0.0381,0.0514,0.0516,0.0517,0,0.0106,0.0109,0.0113,0.0133,0.0133,0.016,0.0192,0.0203,0.0255,0.0365,0.0428,0.0533,0.0635,0.0713,0.0643,0.0647,0.0539,0.0594,0.0467,0.0388,0.0339,0.0306,0.0275,0.0515,0.0516,0.0517,0.0517,0,0.0153,0.0151,0.0161,0.0197,0.0227,0.0264,0.031,0.0362,0.041,0.0509,0.0665,0.0761,0.0829,0.0846,0.0812,0.0763,0.0534,0.0609,0.053,0.036,0.0327,0.0296,0.0387,0.0525,0.0524,0.0523,0.0523,0.0523,0.0204,0.0221,0.0236,0.0273,0.0312,0.0378,0.043,0.051,0.0627,0.0791,0.0852,0.1033,0.0968,0.0936,0.0849,0.0633,0.0635,0.0531,0.0492,0.0477,0.0408,0.0529,0.0655,0.0655,0.0655,0.0655,0.0655,0,0.0272,0.0283,0.0316,0.0363,0.0422,0.0423,0.052,0.0595,0.0765,0.0941,0.1097,0.1185,0.1111,0.0949,0.0681,0.0532,0.0445,0.044,0.0368,0.035,0.0469,0.0414,0.049,0.049,0.049,0.049,0.049,0.049,0.0316,0.0354,0.0357,0.0454,0.0492,0.0579,0.0642,0.0775,0.0913,0.1141,0.1273,0.1365,0.1225,0.0772,0.0465,0.0387,0.0264,0.0267,0.0223,0.025,0.0254,0.0257,0.0193,0.022,0.022,0.0102,0.0101,0.01]}],[{"header":{"parameterUnit":"m.s-1","parameterCategory":2,"la1":30.2991,"la2":30.254,"lo1":-89.0895,"lo2":-89.0444,"dy":0.0017,"dx":0.0017,"nx":28,"ny":28,"refTime":"2024-09-25T09:00:00:Z","depth":"2","parameterNumber":2,"parameterNumberName":"U-component_of_CURRENTS"},"data":[0,0,0,0,0,0,0,0,0,0,0,0,0,0,0,0,0,0,0,0,0,0,0,0,0,0,0,0,0,0,0,0,0,0,0,0,0,0,0,0,0,0,0,0,0,0,0,0,0,0,0,0,0,0,0,0,0,0,0.1663,0.1663,0,0.166,0.166,0.1659,0.1662,0.1663,0.1664,0.1664,0.1733,0.1735,0.1736,0,0,0,0,0,0,0,0,0,0,0,0,0,0.1648,0.1648,0.1663,0.1663,0.1664,0.166,0.166,0.1659,0.1662,0.1663,0.1664,0.1664,0.1733,0.1734,0.1736,0,0,0,0,0,0,0,0,0,0,0,0,0,0.1646,0.1648,0.1663,0.1669,0.1669,0.166,0.166,0.1659,0.1662,0.1663,0.1664,0.1665,0.1732,0.1734,0.1736,0.1731,0,0,0.1742,0.1743,0,0,0,0,0,0,0,0,0.1646,0.1646,0.1667,0.1668,0.1669,0.1667,0.168,0.1688,0.1662,0.166,0.1664,0.1665,0.172,0.1723,0.1713,0.1734,0.1737,0.1742,0.1744,0.1744,0.1745,0,0,0,0,0,0,0,0.1647,0.1646,0.1657,0.1668,0.1669,0.1664,0.1664,0.1681,0.1683,0.166,0.1661,0.1669,0.1721,0.1711,0.1715,0.1738,0.1742,0.1744,0.1745,0.1746,0.1862,0.1864,0,0,0,0,0,0,0.1657,0.1646,0.1657,0.1657,0.1665,0.1664,0.1664,0.1663,0.1681,0.1686,0.1668,0.1669,0.1707,0.1712,0.1717,0.1818,0.1744,0.1746,0.1747,0.1861,0.1863,0.1865,0,0,0,0,0,0,0.1657,0.1658,0.1657,0.1656,0.1657,0.1664,0.1662,0.1662,0.1678,0.1687,0.1692,0.1687,0.1708,0.1715,0.1773,0.1817,0.1747,0.1749,0.1858,0.1861,0.1864,0.1953,0,0,0,0,0,0,0.1656,0.1657,0.1667,0.1657,0.1657,0.1692,0.1662,0.1662,0.1682,0.1684,0.1705,0.1711,0.1709,0.177,0.1775,0.1819,0.175,0.1856,0.186,0.1863,0.1947,0.1958,0.1968,0,0,0,0,0,0.1655,0.1662,0.1667,0.1669,0.1668,0.1695,0.1696,0.1699,0.1683,0.1711,0.1724,0.1711,0.1796,0.1774,0.1779,0.1824,0.1854,0.1859,0.1863,0.1943,0.1956,0.1967,0,0,0,0,0,0,0.1651,0.1663,0.1669,0.1676,0.1707,0.1698,0.1712,0.1713,0.1738,0.174,0.1738,0.1747,0.1814,0.1806,0.1781,0.1867,0.1822,0.1827,0.1881,0.1894,0.1904,0.1909,0.1752,0,0,0,0,0,0.1658,0.1671,0.169,0.1701,0.1715,0.1717,0.1727,0.1737,0.1753,0.1763,0.1787,0.1804,0.1829,0.1852,0.1876,0.1923,0.1918,0.1954,0.1964,0.1973,0.1981,0.2037,0.2053,0.1879,0.1879,0.1879,0,0,0.1656,0.1667,0.1673,0.1703,0.1712,0.1735,0.1725,0.1755,0.1779,0.1769,0.182,0.1847,0.185,0.191,0.1938,0.1913,0.2014,0.1978,0.1986,0.1989,0.2043,0.206,0.2075,0.1882,0.1881,0.1881,0,0,0.1656,0.1674,0.1686,0.1714,0.1752,0.1764,0.1783,0.181,0.1833,0.1889,0.1886,0.1948,0.1981,0.2006,0.2012,0.2091,0.2068,0.2096,0.2153,0.2208,0.2223,0.2236,0.2227,0.2239,0.2099,0.21,0.21,0,0.1666,0.1669,0.1698,0.1719,0.1741,0.178,0.1803,0.183,0.1882,0.191,0.1924,0.1997,0.2025,0.2073,0.2118,0.2117,0.2121,0.2106,0.2222,0.2235,0.2247,0.2235,0.2246,0.2104,0.2104,0.2103,0.2103,0,0.1664,0.1682,0.1693,0.1732,0.1768,0.1801,0.1848,0.1904,0.1942,0.1969,0.2054,0.2101,0.2149,0.2171,0.2176,0.2269,0.2234,0.2231,0.2191,0.227,0.2251,0.2262,0.2111,0.211,0.2108,0.2107,0,0,0.1664,0.1689,0.1695,0.1721,0.178,0.1814,0.1871,0.1938,0.1992,0.2057,0.212,0.2197,0.224,0.2253,0.2276,0.2335,0.2437,0.2334,0.2335,0.2324,0.2521,0.2394,0.2392,0.2463,0.2466,0.2468,0.2465,0,0.1666,0.169,0.1706,0.1756,0.1784,0.1842,0.19,0.197,0.2044,0.2129,0.2176,0.2258,0.2259,0.2322,0.2378,0.2435,0.2474,0.2435,0.2447,0.2446,0.2324,0.2404,0.2215,0.2189,0.2475,0.2477,0.2478,0,0.1674,0.1689,0.1723,0.1787,0.1806,0.1851,0.197,0.2028,0.2137,0.2197,0.2272,0.2322,0.2419,0.2424,0.2521,0.25,0.2526,0.2548,0.2548,0.2408,0.234,0.2162,0.2197,0.2495,0.2493,0.2492,0.2491,0,0.1679,0.1715,0.1745,0.1764,0.1838,0.1885,0.1942,0.2056,0.213,0.2259,0.2337,0.2414,0.249,0.2542,0.2605,0.2586,0.2694,0.2661,0.2542,0.253,0.2359,0.2327,0.2727,0.2727,0.2728,0.2728,0.2728,0,0.1685,0.1716,0.1756,0.1775,0.1846,0.1902,0.2009,0.2083,0.2205,0.2289,0.2384,0.2447,0.2541,0.2606,0.2631,0.2617,0.271,0.2562,0.254,0.2378,0.235,0.2609,0.2595,0.2727,0.2727,0.2727,0.2727,0,0.1696,0.1712,0.1759,0.1822,0.1854,0.1914,0.2034,0.2112,0.2236,0.2354,0.2404,0.2506,0.2566,0.2626,0.2703,0.264,0.2652,0.262,0.2392,0.2342,0.2429,0.242,0.2462,0.2457,0.2454,0.2451,0.2449,0,0.1714,0.1736,0.1791,0.1821,0.1852,0.1942,0.2008,0.2123,0.2193,0.236,0.2396,0.2503,0.2504,0.2536,0.2497,0.2475,0.2578,0.2266,0.2192,0.2437,0.2411,0.2408,0.2404,0.1988,0.1982,0.1977,0.1973,0,0.1739,0.1754,0.1762,0.1832,0.189,0.1949,0.2035,0.207,0.2202,0.2288,0.2319,0.2331,0.2345,0.22,0.2202,0.2166,0.2252,0.2157,0.2524,0.2077,0.1989,0.1964,0.1976,0.193,0.1934,0.1937,0.194,0.1941,0.1745,0.1758,0.1773,0.182,0.1893,0.192,0.1914,0.1976,0.203,0.206,0.2115,0.2047,0.2033,0.1876,0.1824,0.1804,0.1946,0.1854,0.1871,0.1892,0.183,0.1741,0.162,0.1622,0.1625,0.1626,0.1628,0,0.1717,0.1729,0.1771,0.1789,0.1819,0.1898,0.191,0.1851,0.1817,0.1835,0.1798,0.158,0.1476,0.1513,0.1394,0.1363,0.1375,0.1316,0.133,0.1374,0.1413,0.1329,0.0984,0.0982,0.098,0.0978,0,0,0.1683,0.1677,0.1675,0.1687,0.1737,0.1693,0.1662,0.1597,0.1548,0.1416,0.1347,0.1359,0.1423,0.1166,0.1139,0.1045,0.1202,0.1,0.1518,0.1577,0.1614,0.1723,0.1642,0,0,0,0,0]},{"header":{"parameterUnit":"m.s-1","parameterCategory":2,"la1":30.2991,"la2":30.254,"lo1":-89.0895,"lo2":-89.0444,"dy":0.0017,"dx":0.0017,"nx":28,"ny":28,"refTime":"2024-09-25T09:00:00:Z","depth":"2","parameterNumber":3,"parameterNumberName":"V-component_of_CURRENTS"},"data":[0,0,0,0,0,0,0,0,0,0,0,0,0,0,0,0,0,0,0,0,0,0,0,0,0,0,0,0,0,0,0,0,0,0,0,0,0,0,0,0,0,0,0,0,0,0,0,0,0,0,0,0,0,0,0,0,0,0,0.0175,0.0175,0,0.0176,0.0176,0.0176,0.0171,0.0171,0.0171,0.0171,0.0104,0.0102,0.0101,0,0,0,0,0,0,0,0,0,0,0,0,0,0.0152,0.0153,0.0175,0.0175,0.0175,0.0176,0.0176,0.0176,0.0171,0.0171,0.0171,0.0171,0.0105,0.0103,0.0101,0,0,0,0,0,0,0,0,0,0,0,0,0,0.0159,0.0153,0.0176,0.0173,0.0173,0.0176,0.0176,0.0176,0.0171,0.0171,0.0171,0.0171,0.0105,0.0103,0.01,0.0091,0,0,0.0093,0.0092,0,0,0,0,0,0,0,0,0.0158,0.016,0.0173,0.0173,0.0173,0.0173,0.0143,0.0144,0.0171,0.0172,0.0171,0.0171,0.0121,0.0117,0.0119,0.0087,0.0085,0.0093,0.0091,0.009,0.009,0,0,0,0,0,0,0,0.0158,0.016,0.0176,0.0173,0.0173,0.0165,0.0166,0.0143,0.0147,0.0172,0.0172,0.0171,0.012,0.0122,0.0117,0.0084,0.0093,0.0091,0.0089,0.0088,0.003,0.003,0,0,0,0,0,0,0.0158,0.0159,0.0176,0.0176,0.0164,0.0166,0.0167,0.0173,0.0149,0.0145,0.0171,0.0171,0.0126,0.012,0.0115,0.0098,0.009,0.0088,0.0087,0.003,0.003,0.003,0,0,0,0,0,0,0.0158,0.016,0.0176,0.0167,0.0168,0.0166,0.0174,0.0174,0.017,0.0149,0.0144,0.0168,0.0126,0.0118,0.0089,0.0095,0.0087,0.0085,0.003,0.003,0.003,0.0066,0,0,0,0,0,0,0.0157,0.016,0.0164,0.0167,0.0169,0.0178,0.0174,0.0174,0.017,0.017,0.0144,0.0138,0.0125,0.0092,0.0086,0.0092,0.0083,0.003,0.003,0.003,0.0065,0.0067,0.0069,0,0,0,0,0,0.0157,0.0169,0.0164,0.0166,0.0175,0.0178,0.0178,0.0176,0.017,0.0171,0.0149,0.0139,0.0087,0.009,0.0083,0.0088,0.003,0.003,0.003,0.0064,0.0067,0.0069,0,0,0,0,0,0,0.0161,0.0169,0.0165,0.0178,0.0175,0.0177,0.018,0.0173,0.0159,0.0154,0.0132,0.0124,0.0104,0.0086,0.009,0.007,0.0059,0.0058,0.0088,0.009,0.0092,0.0134,0.0081,0,0,0,0,0,0.0163,0.0174,0.0173,0.0183,0.0182,0.0178,0.0178,0.0174,0.0163,0.0157,0.0134,0.0112,0.01,0.0086,0.0068,0.0051,0.0055,0.005,0.0052,0.0054,0.0083,0.0099,0.0106,0.0029,0.0029,0.0029,0,0,0.0165,0.0173,0.0176,0.0184,0.0183,0.0189,0.0178,0.0178,0.0182,0.015,0.0137,0.0115,0.0096,0.0083,0.0073,0.0067,0.0071,0.0054,0.0056,0.0084,0.01,0.0108,0.0115,0.0029,0.0029,0.0029,0,0,0.0182,0.0182,0.0198,0.0197,0.0197,0.0194,0.0193,0.0184,0.0179,0.0162,0.0146,0.0134,0.0095,0.0098,0.0093,0.0095,0.0082,0.0074,0.0118,0.0133,0.014,0.0147,0.0135,0.014,0.0075,0.0075,0.0075,0,0.0182,0.0207,0.0201,0.0214,0.0218,0.0198,0.0211,0.0205,0.0183,0.0194,0.016,0.0148,0.0115,0.0139,0.0131,0.0104,0.0098,0.0111,0.0139,0.0145,0.0152,0.0138,0.0143,0.0077,0.0077,0.0076,0.0076,0,0.0211,0.0227,0.0235,0.0248,0.0248,0.0255,0.0245,0.0239,0.0222,0.0227,0.0234,0.0196,0.0201,0.0176,0.0149,0.0179,0.0154,0.0141,0.0139,0.0162,0.0145,0.015,0.0079,0.0079,0.0078,0.0078,0,0,0.0219,0.0252,0.0254,0.0272,0.0267,0.0276,0.0279,0.0298,0.0327,0.0295,0.0342,0.0301,0.0295,0.029,0.0256,0.0257,0.0265,0.0213,0.0213,0.0213,0.0278,0.0235,0.0235,0.0254,0.0255,0.0257,0.0239,0,0.0244,0.0287,0.0292,0.0324,0.0342,0.0331,0.0347,0.0358,0.0359,0.0393,0.0383,0.0401,0.0335,0.0335,0.033,0.0296,0.0285,0.0271,0.0246,0.0246,0.0215,0.0243,0.0247,0.0231,0.0244,0.0245,0.0245,0,0.0268,0.0299,0.0338,0.0382,0.039,0.0399,0.0437,0.0448,0.049,0.0492,0.0518,0.0516,0.0526,0.0457,0.0431,0.0422,0.0355,0.0315,0.0313,0.0275,0.0214,0.0214,0.0239,0.0254,0.0253,0.0252,0.0252,0,0.0285,0.0331,0.037,0.0378,0.0417,0.0433,0.0449,0.0483,0.0523,0.0562,0.0606,0.0617,0.0629,0.0575,0.0487,0.046,0.0453,0.0406,0.0305,0.03,0.0304,0.0297,0.0386,0.0386,0.0386,0.0386,0.0386,0,0.0312,0.0342,0.0381,0.0401,0.046,0.0462,0.0528,0.0541,0.0598,0.0678,0.0662,0.0723,0.0659,0.065,0.0544,0.0452,0.0497,0.0333,0.0307,0.031,0.0304,0.0329,0.0323,0.0386,0.0386,0.0386,0.0386,0,0.0323,0.0348,0.0401,0.0451,0.0469,0.0505,0.0577,0.0636,0.0663,0.0766,0.0788,0.0821,0.0798,0.0723,0.0639,0.0529,0.0439,0.0383,0.0378,0.0351,0.0255,0.0251,0.0281,0.028,0.0279,0.0278,0.0277,0,0.0333,0.036,0.0436,0.0479,0.0502,0.056,0.0615,0.0658,0.0734,0.083,0.0901,0.0912,0.0924,0.0789,0.0623,0.0458,0.0434,0.0329,0.0278,0.0281,0.0252,0.0249,0.0246,0.0282,0.0282,0.0281,0.0281,0,0.036,0.0387,0.0441,0.0527,0.0589,0.067,0.0751,0.0824,0.0898,0.0973,0.1063,0.1071,0.0951,0.0798,0.0571,0.0453,0.036,0.0309,0.0353,0.0301,0.0279,0.0251,0.0249,0.0276,0.0276,0.0277,0.0277,0.0277,0.0387,0.0432,0.0509,0.0593,0.0667,0.077,0.0836,0.0935,0.1046,0.1136,0.1156,0.1121,0.0968,0.0653,0.0491,0.0309,0.0311,0.022,0.0224,0.0227,0.0224,0.0201,0.018,0.018,0.018,0.018,0.018,0,0.0435,0.0491,0.0571,0.0682,0.0769,0.0789,0.0927,0.0984,0.1101,0.1147,0.1178,0.0989,0.0825,0.0644,0.0366,0.0201,0.0197,0.0148,0.0185,0.0191,0.0196,0.0192,0.0139,0.0139,0.0138,0.0138,0,0,0.0469,0.0555,0.0602,0.0751,0.0815,0.0918,0.0984,0.1041,0.1083,0.1098,0.1053,0.1016,0.0821,0.0608,0.0424,0.0277,0.0261,0.0241,0.029,0.036,0.0367,0.0252,0.0255,0,0,0,0,0]}],[{"header":{"parameterUnit":"m.s-1","parameterCategory":2,"la1":30.2991,"la2":30.254,"lo1":-89.0895,"lo2":-89.0444,"dy":0.0017,"dx":0.0017,"nx":28,"ny":28,"refTime":"2024-09-25T09:00:00:Z","depth":"4","parameterNumber":2,"parameterNumberName":"U-component_of_CURRENTS"},"data":[0,0,0,0,0,0,0,0,0,0,0,0,0,0,0,0,0,0,0,0,0,0,0,0,0,0,0,0,0,0,0,0,0,0,0,0,0,0,0,0,0,0,0,0,0,0,0,0,0,0,0,0,0,0,0,0,0,0,0.0567,0.0568,0,0.061,0.061,0.061,0.0635,0.0635,0.0635,0.0635,0.0651,0.0652,0.0652,0,0,0,0,0,0,0,0,0,0,0,0,0,0.0602,0.06,0.0567,0.0568,0.0568,0.061,0.061,0.0611,0.0635,0.0635,0.0635,0.0635,0.0651,0.0652,0.0652,0,0,0,0,0,0,0,0,0,0,0,0,0,0.0608,0.06,0.0567,0.0586,0.0588,0.0609,0.061,0.0611,0.0634,0.0635,0.0635,0.0635,0.0651,0.0652,0.0652,0.0649,0,0,0.0653,0.0653,0,0,0,0,0,0,0,0,0.0608,0.0607,0.0583,0.0585,0.0587,0.0618,0.0628,0.0623,0.0634,0.0616,0.0635,0.0635,0.0638,0.064,0.0646,0.065,0.065,0.0653,0.0654,0.0654,0.0654,0,0,0,0,0,0,0,0.0607,0.0606,0.0583,0.0583,0.0586,0.0625,0.0625,0.0628,0.0624,0.0617,0.062,0.0626,0.0639,0.0646,0.0647,0.0651,0.0653,0.0654,0.0654,0.0654,0.0707,0.0708,0,0,0,0,0,0,0.0599,0.0605,0.0582,0.0584,0.06,0.0624,0.0624,0.0607,0.0624,0.0628,0.0626,0.0627,0.0645,0.0646,0.0647,0.0688,0.0654,0.0654,0.0654,0.0706,0.0707,0.0709,0,0,0,0,0,0,0.0599,0.0595,0.058,0.0598,0.0599,0.0623,0.0603,0.0608,0.063,0.0631,0.0634,0.0645,0.0645,0.0647,0.0666,0.0687,0.0654,0.0655,0.0705,0.0706,0.0708,0.0742,0,0,0,0,0,0,0.0599,0.0594,0.0589,0.0596,0.0598,0.0594,0.0603,0.0608,0.0633,0.0635,0.0648,0.0649,0.0645,0.0666,0.0667,0.0687,0.0655,0.0703,0.0705,0.0708,0.074,0.0745,0.075,0,0,0,0,0,0.06,0.0588,0.0587,0.0586,0.0584,0.0594,0.0598,0.0617,0.0634,0.0639,0.0658,0.065,0.068,0.0667,0.0668,0.0689,0.0702,0.0705,0.0707,0.0737,0.0744,0.0749,0,0,0,0,0,0,0.0611,0.059,0.0589,0.0574,0.0585,0.0598,0.0611,0.0626,0.0647,0.0657,0.066,0.0662,0.0691,0.0685,0.067,0.0712,0.0692,0.0695,0.0714,0.0721,0.0725,0.0716,0.0655,0,0,0,0,0,0.0607,0.0588,0.0585,0.0579,0.0581,0.06,0.0612,0.0626,0.0642,0.0653,0.0666,0.0683,0.07,0.0706,0.0717,0.0734,0.0752,0.0751,0.0756,0.076,0.0755,0.0808,0.0818,0.0717,0.0717,0.0717,0,0,0.0615,0.06,0.0593,0.058,0.0591,0.0596,0.0608,0.0628,0.0645,0.065,0.0683,0.0701,0.071,0.0735,0.0746,0.0733,0.0802,0.0763,0.0767,0.0759,0.0812,0.0822,0.0831,0.0719,0.0719,0.0719,0,0,0.0618,0.0602,0.0589,0.0592,0.0603,0.061,0.0618,0.064,0.066,0.0689,0.0706,0.0737,0.0756,0.0771,0.0779,0.0817,0.083,0.0825,0.0838,0.0891,0.09,0.0908,0.0959,0.0971,0.0824,0.0824,0.0824,0,0.0633,0.0604,0.0594,0.0589,0.0598,0.0616,0.0622,0.0642,0.0674,0.0701,0.0703,0.0766,0.0773,0.0811,0.0823,0.0828,0.086,0.0814,0.0898,0.0906,0.0913,0.0964,0.0976,0.0826,0.0826,0.0826,0.0826,0,0.0621,0.0611,0.0609,0.0596,0.0607,0.0616,0.0635,0.0661,0.0692,0.0722,0.0778,0.0797,0.0839,0.0846,0.0842,0.09,0.0909,0.0902,0.0881,0.0925,0.0976,0.0989,0.0829,0.0828,0.0828,0.0827,0,0,0.0623,0.0601,0.0604,0.0601,0.0612,0.0618,0.0649,0.0682,0.0721,0.076,0.0817,0.0846,0.0881,0.0892,0.0906,0.0934,0.1017,0.0938,0.094,0.0986,0.1144,0.1025,0.1027,0.1031,0.1033,0.1035,0.1164,0,0.0621,0.0599,0.06,0.0607,0.0597,0.0627,0.0653,0.0696,0.0742,0.0803,0.0846,0.0907,0.0893,0.0931,0.096,0.1006,0.1049,0.0983,0.1096,0.1099,0.0986,0.1037,0.1041,0.1174,0.1177,0.1179,0.118,0,0.0608,0.0591,0.0581,0.0598,0.0602,0.0624,0.0677,0.0709,0.0794,0.0837,0.0907,0.0958,0.1026,0.1006,0.1106,0.1069,0.1111,0.1133,0.1139,0.1019,0.1002,0.1118,0.1203,0.1201,0.12,0.1198,0.1197,0,0.0586,0.0587,0.0574,0.0577,0.0594,0.0624,0.0659,0.0731,0.0779,0.0883,0.0938,0.1023,0.1092,0.1144,0.1182,0.1173,0.1274,0.1278,0.1212,0.1206,0.1259,0.1249,0.1354,0.1354,0.1354,0.1354,0.1353,0,0.0562,0.0561,0.0569,0.0559,0.0586,0.0617,0.0681,0.0726,0.0819,0.0883,0.0969,0.1031,0.1131,0.1196,0.1219,0.1239,0.1319,0.122,0.1229,0.1273,0.1263,0.1269,0.1257,0.1359,0.1357,0.1357,0.1356,0,0.0531,0.0527,0.0519,0.0544,0.0569,0.0593,0.0693,0.0736,0.0826,0.0914,0.0958,0.1083,0.1169,0.1227,0.1325,0.1288,0.1313,0.13,0.1342,0.1351,0.1214,0.1203,0.1279,0.1276,0.1273,0.1271,0.1269,0,0.0502,0.0485,0.0509,0.0513,0.0532,0.0588,0.063,0.0731,0.0781,0.0925,0.0957,0.1093,0.116,0.1209,0.1265,0.1309,0.1285,0.1296,0.1249,0.1204,0.1206,0.1199,0.1192,0.1265,0.1264,0.1264,0.1263,0,0.045,0.0463,0.0462,0.0472,0.0508,0.0548,0.0622,0.0657,0.0769,0.0865,0.0953,0.1018,0.111,0.1176,0.1201,0.1222,0.1283,0.1269,0.1275,0.1231,0.1188,0.1191,0.1187,0.1254,0.1255,0.1256,0.1256,0,0.0432,0.0419,0.0419,0.0433,0.0467,0.0488,0.0539,0.0609,0.068,0.0835,0.0866,0.099,0.1106,0.1132,0.1149,0.1157,0.1162,0.1125,0.1139,0.115,0.1038,0.096,0.097,0,0,0,0,0,0.0407,0.0383,0.0381,0.0386,0.0416,0.0441,0.0517,0.0569,0.0689,0.0727,0.0797,0.0873,0.0948,0.1015,0.1004,0.1086,0.1148,0.1065,0.1106,0.1202,0.1213,0.1087,0,0,0,0,0,0,0.0389,0.0374,0.0363,0.0347,0.0347,0.0382,0.0427,0.0501,0.0533,0.0659,0.0712,0.0809,0.0897,0.095,0.0987,0.1002,0.1006,0.1142,0.1139,0.1196,0.1206,0.1214,0.1089,0,0,0,0,0]},{"header":{"parameterUnit":"m.s-1","parameterCategory":2,"la1":30.2991,"la2":30.254,"lo1":-89.0895,"lo2":-89.0444,"dy":0.0017,"dx":0.0017,"nx":28,"ny":28,"refTime":"2024-09-25T09:00:00:Z","depth":"4","parameterNumber":3,"parameterNumberName":"V-component_of_CURRENTS"},"data":[0,0,0,0,0,0,0,0,0,0,0,0,0,0,0,0,0,0,0,0,0,0,0,0,0,0,0,0,0,0,0,0,0,0,0,0,0,0,0,0,0,0,0,0,0,0,0,0,0,0,0,0,0,0,0,0,0,0,0.0273,0.0273,0,0.0279,0.0279,0.0279,0.028,0.028,0.028,0.028,0.0261,0.0261,0.0261,0,0,0,0,0,0,0,0,0,0,0,0,0,0.0228,0.0229,0.0273,0.0273,0.0273,0.0279,0.0279,0.0279,0.028,0.028,0.028,0.028,0.0262,0.0261,0.0261,0,0,0,0,0,0,0,0,0,0,0,0,0,0.0242,0.0229,0.0273,0.0275,0.0275,0.0279,0.0279,0.0279,0.028,0.028,0.028,0.028,0.0262,0.0261,0.026,0.0258,0,0,0.0258,0.0258,0,0,0,0,0,0,0,0,0.0241,0.0244,0.0274,0.0274,0.0275,0.0279,0.0257,0.0271,0.028,0.0278,0.028,0.028,0.0265,0.0264,0.0266,0.0257,0.0256,0.0258,0.0258,0.0258,0.0257,0,0,0,0,0,0,0,0.024,0.0243,0.0275,0.0274,0.0275,0.0263,0.0265,0.0259,0.0271,0.0278,0.0278,0.0279,0.0265,0.0266,0.0265,0.0256,0.0258,0.0258,0.0257,0.0257,0.0248,0.0248,0,0,0,0,0,0,0.0242,0.0243,0.0275,0.0276,0.0258,0.0264,0.0266,0.0277,0.0272,0.0271,0.0279,0.0279,0.0267,0.0266,0.0264,0.0271,0.0258,0.0257,0.0257,0.0248,0.0248,0.0248,0,0,0,0,0,0,0.0241,0.0245,0.0275,0.0259,0.0262,0.0265,0.0277,0.0278,0.0282,0.0273,0.0272,0.0284,0.0267,0.0265,0.0261,0.027,0.0257,0.0256,0.0248,0.0248,0.0248,0.0278,0,0,0,0,0,0,0.024,0.0245,0.0255,0.0259,0.0263,0.028,0.0277,0.0278,0.0283,0.0283,0.0276,0.0274,0.0267,0.0262,0.0261,0.0269,0.0256,0.0247,0.0248,0.0248,0.0277,0.0279,0.0281,0,0,0,0,0,0.0239,0.0248,0.0256,0.026,0.0276,0.0281,0.0281,0.0283,0.0283,0.0286,0.0281,0.0275,0.0263,0.0262,0.026,0.0268,0.0247,0.0248,0.0248,0.0276,0.0279,0.0281,0,0,0,0,0,0,0.023,0.025,0.0258,0.0273,0.0279,0.0281,0.0284,0.0286,0.0285,0.0286,0.0276,0.0274,0.0274,0.0265,0.0264,0.0266,0.0254,0.0254,0.0276,0.0279,0.0281,0.0285,0.0255,0,0,0,0,0,0.0235,0.0252,0.0262,0.0276,0.0279,0.0284,0.0286,0.0289,0.0289,0.0289,0.0284,0.0278,0.0273,0.0272,0.0265,0.0266,0.0244,0.0269,0.0272,0.0274,0.0275,0.0243,0.0243,0.0249,0.0249,0.0249,0,0,0.0234,0.0249,0.0257,0.0276,0.0281,0.0291,0.0285,0.0293,0.0304,0.0286,0.0296,0.0285,0.0274,0.0276,0.0275,0.0271,0.026,0.0274,0.0276,0.0276,0.0244,0.0243,0.0242,0.025,0.025,0.025,0,0,0.0241,0.0256,0.0272,0.0281,0.0295,0.0298,0.0302,0.0307,0.0312,0.0319,0.0308,0.0301,0.0298,0.029,0.0286,0.0296,0.0272,0.0296,0.0313,0.0283,0.0282,0.0281,0.0253,0.0249,0.0299,0.0299,0.0299,0,0.024,0.0269,0.0275,0.0292,0.0303,0.0303,0.0319,0.0323,0.0327,0.0332,0.0326,0.0314,0.0305,0.0302,0.0308,0.0301,0.028,0.0305,0.0286,0.0284,0.0282,0.0254,0.0249,0.0301,0.03,0.03,0.03,0,0.026,0.0284,0.0292,0.032,0.0328,0.0343,0.0349,0.0358,0.0362,0.0363,0.0362,0.0343,0.0336,0.0332,0.0325,0.0314,0.0301,0.0291,0.0279,0.0284,0.0253,0.0248,0.0303,0.0302,0.0302,0.0301,0,0,0.0258,0.03,0.0305,0.0329,0.0348,0.0359,0.0376,0.0392,0.0405,0.0397,0.0404,0.039,0.0375,0.0369,0.0352,0.0327,0.0299,0.0309,0.0306,0.0282,0.0231,0.0218,0.021,0.0284,0.0283,0.0283,0.0215,0,0.0277,0.0321,0.0333,0.0372,0.0395,0.0403,0.0421,0.0432,0.0435,0.0438,0.0414,0.0413,0.0391,0.0389,0.0358,0.0314,0.0286,0.0318,0.023,0.0227,0.0215,0.0204,0.028,0.0211,0.0209,0.0208,0.0208,0,0.0296,0.0328,0.0372,0.0416,0.0425,0.0444,0.0475,0.0491,0.0491,0.0491,0.0474,0.0453,0.0421,0.04,0.0317,0.0338,0.029,0.025,0.0246,0.0219,0.0203,0.0204,0.0198,0.0199,0.0199,0.02,0.0201,0,0.0304,0.0354,0.0397,0.0412,0.0455,0.0477,0.0497,0.051,0.0529,0.0524,0.0525,0.0479,0.0461,0.0387,0.0304,0.0313,0.0201,0.0203,0.0143,0.0141,0.0161,0.0163,0.0142,0.0142,0.0142,0.0143,0.0143,0,0.0324,0.0357,0.0409,0.0433,0.0483,0.0502,0.0545,0.0556,0.0569,0.0585,0.0554,0.0542,0.0457,0.0384,0.0304,0.02,0.0199,0.0141,0.0121,0.0175,0.018,0.0157,0.016,0.014,0.0141,0.0141,0.0141,0,0.0327,0.0362,0.0416,0.0471,0.0493,0.0529,0.0584,0.061,0.0618,0.0633,0.0633,0.0589,0.0501,0.0397,0.0276,0.0209,0.0106,0.0069,0.0129,0.0114,0.0069,0.0074,0.0007,0.0005,0.0004,0.0004,0.0003,0,0.0333,0.0365,0.0441,0.0475,0.0505,0.0562,0.0601,0.0634,0.0656,0.0655,0.0655,0.0592,0.0545,0.0359,0.0253,0.0093,0.0074,0.0019,0.0052,0.0067,0.0054,0.006,0.0066,0.0002,0.0001,0.0001,0.0001,0,0.0342,0.0374,0.0415,0.0485,0.0538,0.06,0.065,0.0668,0.0696,0.0705,0.067,0.0588,0.049,0.0361,0.0232,0.0117,0.0053,0.001,0.0012,0.0042,0.006,0.005,0.0057,-0.0002,-0.0002,-0.0002,-0.0001,0,0.0344,0.0374,0.0428,0.0491,0.0557,0.0613,0.0644,0.0669,0.0695,0.0691,0.0676,0.058,0.0533,0.0373,0.0247,0.0136,0.0123,0.0091,0.0089,0.0091,0.0136,0.0172,0.0123,0,0,0,0,0,0.0343,0.0377,0.0428,0.0498,0.0562,0.0604,0.0665,0.0689,0.0714,0.0693,0.0687,0.0595,0.0436,0.0372,0.026,0.0229,0.0096,0.0093,0.0056,-0.002,-0.0016,0.0021,0,0,0,0,0,0,0.034,0.0387,0.0421,0.0492,0.0538,0.0611,0.0653,0.0671,0.0659,0.0667,0.0586,0.0563,0.0409,0.0498,0.0256,0.0225,0.0185,0.0027,0.0024,-0.0022,-0.0019,-0.0016,0.0023,0,0,0,0,0]}]]